ISIS 1

Last updated on Fri Dec 19 2025 00:02:15 GMT+0000 (Coordinated Universal Time)

1 03669U 69009A 25352.45907454 .00000192 00000+0 13923-3 0 9995 2 03669 88.4488 164.1706 1706923 253.1370 87.6254 11.30356980339351
UTC large
Height (km)
Speed (km/s)
/
Latitude / Longitude
Inclination (degrees)
Orbital Period (minutes)
Azimuth
Elevation
Range (km)
Doppler Factor

Next 0 passes for location: London (51.5072 / 0.1276)

Sorry there are no passes over London.